Temp
94 87 83 85 86 86 84 82 79 84 87 83 84 82 85 88 88 87 87 89 77 74 72 72 70 69 69 67 69 67 67 66 69 65 63 63 62 67 67 67 76 74 74 72
88 81 86 87 87 84 83 80 79 84 86 84 83 82 87 85 84 84 85 87 77 72 69 67 69 67 66 68 68 67 64 64 63 63 62 63 64 70 71 73 72 72 72 71
82 85 87 86 83 81 82 77 77 77 83 86 83 79 82 84 85 84 84 84 80 74 65 66 66 66 68 67 68 68 67 66 63 62 62 66 67 68 68 72 74 73 72 72
85 88 85 84 80 82 76 83 81 79 76 70 83 68 78 80 79 79 80 81 81 73 68 68 67 66 65 64 66 67 67 62 63 67 66 63 61 62 65 66 68 71 71 70
81 82 82 80 80 83 78 84 81 81 78 76 77 72 72 81 69 72 73 69 67 64 60 57 57 58 59 62 59 57 57 57 59 61 60 57 56 63 70 69 66 66 71 73
84 89 86 84 85 84 85 82 81 81 80 67 72 72 74 68 75 68 62 61 59 58 56 56 57 58 58 60 60 59 57 61 66 67 67 66 66 65 67 68 67 69 72 72
81 83 86 86 81 85 82 75 65 64 65 65 74 70 70 75 76 72 63 57 57 55 54 54 55 56 56 58 59 63 71 70 71 70 69 68 67 66 65 67 68 66 68 66
72 68 78 85 80 75 76 74 65 52 57 64 75 63 53 73 70 67 62 57 55 55 56 58 57 58 61 62 66 68 69 66 66 68 69 69 68 69 68 65 66 67 68 66
71 70 83 81 83 81 74 71 77 65 69 65 69 67 72 71 57 64 63 57 56 59 61 62 64 65 66 67 68 67 66 67 69 68 67 67 65 64 65 63 64 63 67 66
76 66 80 80 82 83 76 79 66 69 53 52 64 64 60 68 71 67 65 63 62 64 64 65 66 66 66 68 69 69 68 67 68 68 66 65 63 64 64 64 64 66 67 67
79 73 72 79 75 71 74 72 70 68 66 56 55 59 69 67 70 69 63 64 66 63 63 63 63 67 66 66 68 68 68 67 65 64 64 63 63 66 67 67 67 67 67 67
77 70 65 70 79 79 76 71 69 59 57 63 60 59 71 70 71 71 66 65 64 59 60 62 62 60 68 67 66 66 63 62 63 64 63 63 66 66 66 67 67 66 65 65
75 69 60 65 72 72 67 73 73 70 66 58 56 52 61 69 69 70 64 61 59 60 61 60 65 66 64 65 66 65 63 62 63 64 66 63 66 65 64 64 64 65 66 66
70 68 64 60 65 71 66 69 72 67 58 61 60 61 62 65 65 63 62 65 61 57 61 64 64 66 67 63 62 63 61 65 66 65 62 65 63 64 64 65 65 66 66 65
73 62 67 69 72 71 70 69 69 65 66 58 61 55 60 64 62 63 64 65 61 62 60 60 63 62 61 59 62 62 64 64 65 64 64 62 64 64 62 64 63 64 63 63
74 62 66 63 71 71 67 69 66 66 65 62 58 54 61 67 64 61 61 65 64 57 60 63 59 59 60 61 64 62 61 62 64 64 63 64 62 61 63 62 61 60 61 61
67 65 61 57 67 66 58 62 62 62 61 52 50 56 65 61 63 63 65 65 62 62 62 57 57 62 63 62 63 60 63 62 60 60 61 62 59 60 59 55 57 58 58 59
65 63 64 57 62 46 60 70 67 61 57 56 56 64 66 66 69 66 64 62 62 60 57 60 64 62 60 61 61 62 62 61 62 62 62 60 60 59 56 55 58 57 56 55
70 65 58 52 51 57 59 63 61 57 54 61 64 66 67 68 68 60 64 63 59 60 63 63 60 59 60 63 60 62 60 64 60 59 60 59 58 58 58 57 56 53 54 50
70 68 58 55 47 43 54 65 69 69 45 61 66 65 64 65 58 60 62 59 60 63 61 58 59 60 59 62 61 60 59 59 58 59 60 59 58 57 53 55 50 49 49 47
58 60 55 52 50 52 63 68 70 46 48 65 66 64 63 59 60 61 62 60 64 59 59 60 62 59 57 60 58 60 58 56 58 60 59 57 57 53 50 49 49 48 48 48
58 55 52 54 50 42 68 66 57 60 65 66 66 64 62 62 61 60 61 62 58 58 58 61 60 59 61 60 58 58 55 57 58 56 58 56 51 50 50 50 48 48 47 48
56 60 58 58 55 64 69 65 67 68 66 65 64 64 63 60 59 61 60 58 57 57 59 60 58 56 56 59 59 55 54 56 57 56 52 50 52 51 51 48 47 46 48 50
66 69 64 62 62 64 66 68 68 68 65 66 65 63 63 60 61 58 57 56 58 59 57 59 58 56 54 55 56 54 54 55 53 51 51 50 51 49 50 49 49 49 49 48
68 68 64 62 64 66 66 67 66 66 66 65 65 63 62 62 60 58 56 59 60 57 57 58 53 51 51 54 53 52 52 52 49 50 50 51 49 48 48 52 48 50 49 44
70 64 59 57 66 66 63 67 67 65 64 64 63 61 63 61 58 61 58 61 61 55 58 53 51 49 49 51 51 51 51 51 50 49 49 47 48 51 49 48 47 41 41 41
MSLP
1004.32 1003.46 1003.03 1003.42 1003.94 1003.63 1003.25 1003.02 1002.91 1002.89 1003.91 1004.49 1003.58 1003.96 1004.03 1005.04 1005.44 1005.80 1006.34 1006.54 1009.20 1011.26 1013.36 1014.45 1015.57 1016.26 1017.17 1018.03 1018.65 1018.92 1019.09 1019.53 1019.72 1019.77 1020.08 1020.34 1020.62 1019.79 1020.02 1019.62 1019.09 1018.62 1019.07 1019.41
1003.79 1003.66 1004.70 1004.86 1004.73 1004.30 1003.93 1003.48 1003.24 1003.68 1004.07 1004.30 1003.75 1003.52 1003.68 1005.35 1006.36 1007.23 1007.43 1007.97 1010.60 1013.15 1014.98 1016.21 1016.91 1017.46 1017.98 1018.40 1018.90 1019.30 1019.56 1019.83 1019.98 1020.25 1020.30 1020.26 1020.47 1019.73 1019.38 1019.54 1018.96 1019.02 1019.16 1019.36
1003.78 1004.52 1005.48 1005.13 1004.71 1004.56 1003.84 1004.55 1004.76 1004.66 1004.40 1003.84 1002.79 1003.10 1003.46 1005.66 1006.83 1008.10 1009.04 1010.29 1011.63 1014.01 1016.01 1017.03 1017.80 1018.25 1018.71 1019.17 1019.36 1019.56 1020.05 1020.41 1020.68 1020.48 1020.06 1020.05 1019.84 1019.68 1019.39 1018.78 1018.42 1018.33 1018.99 1019.15
1004.55 1005.32 1005.40 1005.05 1005.03 1005.52 1004.60 1005.47 1005.52 1005.09 1004.59 1003.54 1003.56 1002.99 1003.08 1005.24 1006.98 1008.59 1009.90 1011.64 1013.05 1015.30 1017.06 1017.70 1018.52 1019.13 1019.55 1020.01 1020.05 1020.37 1020.59 1020.61 1020.47 1020.42 1020.21 1020.09 1020.10 1019.85 1019.31 1019.08 1018.60 1018.65 1018.63 1018.60
1005.15 1005.40 1005.34 1005.22 1005.91 1006.35 1005.71 1006.18 1005.61 1004.91 1004.11 1003.52 1002.52 1003.37 1004.20 1005.61 1008.46 1008.65 1011.85 1014.63 1016.59 1018.03 1018.89 1019.66 1020.19 1020.60 1021.04 1021.11 1021.38 1021.52 1021.53 1021.47 1021.35 1020.84 1020.66 1020.70 1020.55 1020.06 1019.18 1018.93 1018.65 1018.61 1018.11 1017.76
1005.80 1006.51 1006.38 1006.49 1006.66 1006.53 1006.59 1006.10 1005.56 1004.09 1002.91 1002.72 1003.32 1004.38 1004.63 1007.34 1008.59 1011.90 1014.42 1016.71 1018.51 1019.74 1020.63 1021.16 1021.42 1021.44 1021.39 1021.44 1021.72 1021.75 1021.49 1021.05 1020.99 1020.80 1020.52 1020.21 1019.71 1019.69 1019.43 1018.89 1018.78 1018.19 1017.75 1017.65
1005.58 1005.82 1006.48 1007.18 1006.67 1006.41 1006.56 1006.29 1005.36 1003.97 1003.54 1003.28 1004.37 1005.35 1006.36 1008.32 1010.18 1012.19 1015.30 1018.18 1019.77 1020.80 1021.37 1021.96 1022.06 1021.97 1021.99 1021.80 1021.46 1020.97 1020.43 1020.53 1020.57 1020.08 1020.00 1019.94 1019.80 1019.67 1019.32 1018.74 1018.39 1018.44 1017.94 1017.78
1005.66 1006.15 1007.22 1007.53 1007.70 1007.72 1007.37 1007.21 1006.54 1005.98 1005.68 1005.28 1004.93 1005.76 1009.39 1011.24 1014.03 1014.27 1017.03 1019.08 1020.47 1021.24 1021.72 1021.92 1022.05 1021.87 1021.61 1021.42 1021.13 1020.92 1020.85 1020.82 1020.47 1019.94 1019.82 1019.71 1019.47 1019.14 1019.01 1018.90 1018.94 1018.66 1018.08 1017.87
1007.15 1006.84 1007.22 1008.19 1008.59 1008.60 1007.99 1007.46 1007.82 1007.84 1006.66 1005.86 1005.54 1007.69 1010.00 1012.34 1015.24 1015.66 1017.44 1019.19 1020.06 1021.05 1021.38 1021.45 1021.44 1021.45 1021.47 1021.34 1020.97 1021.11 1020.85 1020.41 1020.25 1020.04 1019.91 1019.75 1019.72 1019.55 1019.27 1019.26 1019.02 1018.58 1018.21 1017.85
1008.49 1008.51 1007.85 1008.19 1008.69 1008.35 1008.57 1008.92 1008.27 1007.93 1007.90 1007.47 1007.10 1007.93 1010.29 1011.64 1013.15 1015.00 1016.73 1018.17 1019.53 1020.39 1020.90 1021.11 1021.24 1021.40 1021.42 1020.96 1020.58 1020.58 1020.45 1020.37 1020.10 1019.98 1019.98 1019.88 1019.54 1019.25 1019.05 1018.84 1018.74 1018.26 1018.00 1017.78
1009.71 1009.60 1008.95 1008.56 1007.95 1008.74 1008.81 1008.31 1009.36 1009.99 1009.74 1009.09 1009.09 1009.83 1012.24 1012.92 1013.38 1014.30 1016.85 1018.13 1019.34 1020.43 1021.06 1021.38 1021.53 1021.58 1021.42 1021.09 1020.54 1020.62 1020.48 1020.45 1020.28 1020.28 1020.06 1019.92 1019.45 1018.98 1018.66 1018.49 1018.27 1017.99 1017.84 1017.54
1011.21 1011.21 1010.02 1009.21 1008.86 1009.68 1009.85 1009.67 1010.35 1010.74 1010.81 1011.06 1011.46 1011.80 1013.43 1014.08 1014.48 1015.32 1017.43 1018.99 1020.24 1021.38 1021.74 1021.80 1021.79 1021.72 1020.73 1020.85 1021.01 1020.80 1020.95 1021.05 1020.85 1020.50 1020.17 1019.72 1019.06 1019.09 1018.77 1018.40 1018.25 1018.19 1018.02 1017.76
1012.36 1011.50 1010.87 1009.68 1009.61 1010.87 1010.40 1010.39 1010.64 1011.17 1011.99 1011.77 1011.79 1013.69 1015.74 1014.95 1015.74 1016.67 1018.16 1019.87 1021.02 1021.54 1021.60 1021.88 1021.44 1021.09 1021.22 1020.98 1021.00 1021.27 1021.31 1021.12 1020.82 1020.35 1019.60 1019.41 1019.25 1019.12 1018.99 1018.79 1018.50 1018.28 1017.91 1017.52
1013.74 1012.93 1012.13 1010.97 1010.17 1010.37 1010.31 1010.73 1011.03 1011.86 1012.40 1012.02 1012.38 1013.94 1015.21 1015.44 1016.24 1017.87 1019.26 1020.04 1020.98 1021.52 1021.55 1021.37 1021.44 1021.34 1021.36 1021.70 1021.83 1021.54 1021.41 1020.92 1020.40 1019.97 1019.64 1019.20 1019.39 1019.12 1018.61 1018.62 1018.47 1017.89 1017.69 1017.51
1013.94 1013.48 1012.81 1011.91 1011.13 1011.01 1010.56 1010.82 1011.32 1012.37 1012.97 1013.17 1013.94 1015.43 1016.24 1016.59 1017.68 1018.59 1019.41 1020.06 1020.72 1021.16 1021.80 1022.03 1021.84 1021.89 1022.13 1022.20 1021.79 1021.38 1020.96 1020.77 1020.43 1020.05 1019.88 1019.88 1019.21 1018.89 1018.78 1018.67 1018.60 1018.40 1018.21 1018.04
1013.83 1013.70 1013.38 1012.53 1011.74 1011.14 1010.83 1011.64 1012.86 1013.21 1014.06 1015.01 1016.19 1017.07 1017.90 1017.82 1018.68 1019.20 1019.73 1019.59 1020.60 1021.97 1022.18 1022.05 1022.59 1022.64 1022.25 1021.78 1021.43 1021.64 1021.39 1021.25 1020.83 1020.23 1019.78 1019.43 1018.97 1018.67 1018.68 1018.88 1018.80 1018.72 1018.49 1018.27
1014.28 1013.96 1013.82 1012.79 1012.40 1011.92 1012.21 1013.58 1014.03 1014.79 1016.43 1017.96 1017.85 1018.08 1017.77 1018.21 1018.58 1018.83 1019.54 1020.25 1021.17 1021.81 1022.16 1022.84 1022.94 1022.19 1021.93 1021.93 1021.80 1021.97 1021.44 1021.14 1021.00 1020.65 1020.48 1019.66 1019.52 1019.22 1019.35 1019.68 1019.30 1018.98 1018.72 1018.54
1014.73 1014.51 1014.08 1013.45 1013.11 1013.22 1014.38 1014.90 1015.51 1016.41 1017.76 1018.56 1018.88 1017.97 1017.99 1018.23 1018.50 1019.33 1020.70 1021.39 1021.80 1022.59 1023.10 1022.76 1022.18 1022.51 1022.62 1022.51 1022.16 1021.78 1021.43 1021.32 1020.83 1020.56 1020.24 1020.25 1020.01 1019.92 1020.09 1020.01 1019.57 1019.50 1019.25 1019.29
1015.25 1015.05 1014.63 1014.70 1014.77 1014.85 1015.41 1016.02 1016.48 1017.20 1018.32 1018.54 1018.28 1018.28 1018.41 1018.84 1018.88 1020.71 1021.56 1022.24 1023.10 1023.11 1022.86 1022.89 1023.34 1023.10 1022.74 1022.31 1022.14 1021.64 1021.55 1021.00 1021.05 1020.80 1020.52 1020.45 1020.63 1020.39 1020.21 1020.07 1019.94 1020.19 1019.96 1020.15
1015.08 1015.42 1015.77 1015.81 1015.85 1015.85 1016.86 1016.88 1017.25 1017.26 1018.86 1019.29 1019.07 1019.12 1019.46 1019.74 1019.26 1020.33 1022.20 1023.35 1023.32 1023.19 1023.51 1023.51 1023.39 1022.99 1022.79 1022.36 1022.32 1021.91 1021.85 1021.50 1021.27 1021.03 1020.83 1021.08 1021.02 1020.94 1021.12 1020.82 1021.08 1021.12 1020.90 1020.79
1015.08 1015.32 1015.74 1016.22 1016.52 1017.24 1017.30 1017.19 1017.50 1018.28 1019.93 1019.63 1020.01 1020.25 1020.55 1020.84 1021.82 1022.47 1023.03 1023.34 1023.39 1023.90 1023.78 1023.68 1022.99 1023.06 1023.07 1022.76 1022.63 1022.05 1022.19 1021.99 1021.81 1021.51 1021.49 1021.52 1021.69 1021.77 1021.93 1021.87 1021.76 1021.56 1021.25 1020.98
1015.34 1015.84 1016.45 1016.40 1016.79 1018.04 1017.99 1017.82 1018.26 1019.54 1019.93 1020.38 1020.59 1021.27 1021.53 1021.99 1022.70 1023.23 1023.37 1023.48 1024.04 1024.06 1024.05 1023.56 1023.26 1023.28 1023.22 1023.20 1023.05 1022.66 1022.64 1022.48 1022.27 1022.16 1021.82 1022.09 1022.48 1022.50 1022.34 1022.13 1022.09 1021.85 1021.60 1021.26
1015.98 1016.77 1017.01 1017.23 1017.92 1018.61 1018.82 1019.22 1019.80 1019.97 1020.38 1021.13 1021.47 1022.02 1022.26 1022.85 1023.38 1023.55 1024.00 1024.23 1024.45 1024.36 1024.13 1024.09 1024.09 1024.22 1024.06 1023.64 1023.42 1023.43 1023.54 1023.20 1022.70 1022.52 1022.82 1023.07 1022.94 1022.85 1022.65 1022.63 1022.48 1022.33 1022.01 1021.53
1016.23 1016.82 1016.66 1017.09 1018.36 1018.79 1019.50 1020.03 1020.44 1020.81 1021.40 1021.88 1022.26 1022.65 1022.92 1023.39 1023.61 1024.33 1024.47 1024.71 1024.48 1024.52 1024.74 1024.88 1024.62 1024.62 1024.73 1024.63 1024.51 1024.60 1024.47 1024.00 1023.76 1023.72 1023.67 1023.73 1023.42 1023.37 1023.13 1023.03 1022.88 1022.64 1022.48 1022.25
1016.24 1016.82 1016.62 1017.50 1018.45 1019.12 1019.71 1020.30 1021.12 1021.68 1022.07 1022.43 1023.01 1023.36 1023.58 1023.74 1024.26 1024.69 1024.89 1024.73 1024.78 1025.16 1025.41 1025.54 1025.84 1025.97 1025.81 1025.57 1025.49 1025.42 1025.19 1024.91 1024.66 1024.43 1024.25 1023.92 1024.09 1023.92 1023.79 1023.59 1023.77 1023.48 1023.69 1023.60
1016.44 1017.02 1017.48 1018.27 1018.54 1018.86 1020.12 1020.99 1021.61 1022.00 1022.55 1022.92 1023.33 1023.97 1024.06 1024.43 1024.67 1024.65 1025.10 1025.03 1025.12 1025.69 1025.74 1026.29 1026.57 1026.65 1026.47 1026.21 1026.04 1025.85 1025.62 1025.39 1025.13 1024.91 1024.78 1024.77 1024.53 1024.12 1024.05 1024.12 1024.36 1024.43 1024.30 1024.02
Wind_Speed
10 14 9 15 8 9 6 7 6 8 8 10 16 9 2 4 6 9 8 2 19 21 18 15 14 12 12 11 12 11 9 7 4 2 2 2 2 4 4 2 9 5 6 6
13 10 6 4 5 6 6 8 9 8 3 8 14 10 8 3 8 11 11 10 16 14 14 12 13 12 10 11 12 10 7 4 3 2 2 2 3 6 6 10 6 4 4 6
9 12 2 8 3 9 5 7 11 14 15 17 13 15 14 11 10 11 14 11 19 12 11 8 10 10 11 11 10 8 6 4 4 2 1 3 6 7 8 8 4 2 5 8
7 5 6 9 5 10 7 11 13 15 15 14 18 12 14 14 14 13 15 12 14 14 9 9 10 9 10 12 11 7 6 7 6 6 5 6 5 8 5 7 5 4 6 7
11 6 5 2 11 9 14 12 15 19 20 16 13 8 14 9 18 16 16 18 15 17 16 14 12 11 10 10 7 6 7 8 6 7 5 3 5 7 8 5 5 5 10 9
8 1 5 9 7 5 11 16 20 23 18 13 14 5 4 12 3 17 16 14 12 13 12 12 11 9 9 7 4 3 4 1 3 4 4 7 8 8 9 9 9 9 7 7
4 10 6 4 12 13 18 16 12 7 9 9 5 6 14 13 14 19 17 12 11 11 10 9 8 7 4 3 5 4 4 3 5 7 8 10 9 9 11 9 8 8 7 3
6 2 6 8 10 12 21 10 9 12 13 14 18 7 1 16 16 20 17 13 11 9 6 6 4 6 6 3 4 10 12 12 8 9 9 8 7 7 7 5 6 8 7 6
9 4 2 5 8 9 10 11 15 11 19 14 7 16 12 17 11 12 15 13 11 9 8 7 5 8 7 7 6 7 7 9 10 10 8 8 6 6 7 6 5 6 6 5
5 11 8 4 7 10 5 7 9 6 10 10 12 8 8 11 11 16 13 14 12 9 7 7 6 10 9 9 9 11 10 11 11 9 6 7 5 4 5 5 7 8 8 9
7 7 11 15 2 10 12 9 8 9 8 10 11 7 11 11 13 14 14 12 11 10 8 13 12 10 9 8 10 12 12 12 9 8 8 7 5 6 7 8 9 10 11 10
8 7 10 17 7 4 8 4 6 8 11 11 11 4 11 12 14 15 14 11 11 13 10 10 8 6 9 13 12 11 11 10 8 8 7 8 6 9 11 10 10 10 10 11
9 6 10 11 7 5 5 12 10 9 8 14 13 5 9 9 12 13 11 13 8 8 8 7 6 11 11 10 12 11 9 9 7 9 9 5 8 9 9 10 10 8 8 9
3 7 12 12 15 14 11 11 11 8 9 14 10 8 12 15 14 13 9 5 7 4 6 7 11 13 13 12 8 9 7 10 12 10 10 9 9 8 8 7 10 9 11 12
3 11 15 16 17 15 16 12 9 11 16 11 12 15 11 12 11 6 7 9 5 9 11 11 13 11 9 7 8 8 8 10 11 11 9 9 11 8 7 8 10 10 10 10
8 11 14 17 17 17 11 11 9 9 11 14 10 7 9 12 8 7 6 6 15 11 11 12 11 10 9 6 11 12 11 10 11 11 13 12 9 5 9 8 9 9 10 10
10 11 12 15 17 13 9 7 6 10 11 11 10 6 12 9 7 4 11 13 10 11 13 11 6 8 10 12 10 10 10 9 10 11 13 12 13 13 11 9 9 9 9 10
9 9 10 10 11 10 7 8 10 7 6 5 10 8 8 9 13 14 12 11 13 13 8 6 9 14 11 11 10 8 8 8 11 10 11 10 11 10 9 9 10 11 11 11
4 9 6 3 6 3 4 5 5 5 5 6 9 9 12 14 7 11 9 12 10 5 7 11 10 8 6 10 12 12 8 12 11 10 10 12 10 11 10 10 12 11 10 9
7 7 5 7 5 3 3 3 1 8 3 9 10 11 13 13 9 13 13 9 5 8 10 7 7 8 7 10 10 11 12 13 12 9 10 9 10 13 11 12 11 10 7 5
1 4 5 2 4 6 3 7 5 5 4 7 9 12 10 9 8 10 7 3 7 8 7 8 9 8 10 11 9 11 11 12 11 10 11 11 11 10 10 7 6 8 7 7
5 4 4 5 3 2 7 2 6 4 4 8 9 9 9 7 8 5 5 9 9 9 8 11 10 11 12 12 10 12 12 11 9 7 10 11 9 7 7 7 6 8 6 5
1 6 5 5 4 4 6 8 5 6 9 8 8 7 6 6 6 5 11 6 9 7 10 12 13 12 8 10 13 14 16 15 13 13 13 9 10 8 9 7 8 5 7 6
4 3 5 3 2 5 6 7 7 8 8 7 7 6 5 7 5 10 5 7 7 11 11 12 12 14 14 13 13 12 13 13 12 11 11 9 8 7 7 6 5 6 7 6
4 6 5 7 5 6 5 8 7 7 6 7 8 6 6 6 9 4 8 8 10 10 9 10 11 11 12 13 13 12 11 11 9 8 8 8 6 7 6 10 9 8 9 6
3 7 5 2 6 6 7 7 5 6 6 5 6 6 5 7 4 6 7 9 9 10 11 11 10 9 10 10 9 9 8 8 7 7 7 6 4 4 4 4 6 7 5 6
Wind_Direction
217 240 12 35 2 346 352 319 306 30 55 297 303 299 271 353 12 16 359 47 61 70 66 71 85 99 98 103 117 114 100 54 52 57 16 340 343 347 308 323 280 354 318 328
230 75 53 8 335 305 299 300 22 309 199 272 283 282 213 104 56 46 25 46 88 84 87 90 99 98 109 126 131 118 114 127 104 91 147 150 308 298 321 300 287 291 302 323
5 73 102 279 201 317 199 356 349 321 314 287 290 260 150 134 92 80 77 46 92 86 93 111 123 134 121 135 134 130 87 44 39 37 10 297 296 285 258 250 232 315 307 295
42 73 285 256 92 329 324 15 325 309 305 304 315 298 189 148 133 96 80 67 64 86 107 111 126 112 87 52 33 37 1 2 2 326 337 335 297 297 326 303 290 303 289 282
80 31 333 303 26 330 351 321 292 292 285 279 303 229 138 177 79 87 74 60 61 61 60 58 56 56 53 58 49 45 28 12 357 3 2 359 303 266 277 321 319 286 282 282
75 11 13 5 296 243 292 308 310 275 256 248 120 301 316 130 112 101 87 74 69 67 68 64 56 50 50 50 68 140 173 90 279 271 277 271 294 313 306 315 307 289 324 299
257 171 119 308 328 346 352 312 314 323 335 318 106 284 53 66 63 99 98 87 73 73 73 80 89 87 86 330 291 263 340 341 332 342 332 325 315 312 292 300 308 337 297 18
346 122 340 19 350 336 298 340 296 334 313 313 279 357 328 76 62 89 93 94 89 91 114 117 162 187 184 212 353 5 3 349 333 334 330 318 319 306 302 21 340 302 315 311
329 312 146 77 338 315 344 312 341 285 259 263 326 100 58 47 99 97 106 108 105 112 105 116 87 53 31 360 14 351 337 334 337 340 317 318 335 320 323 304 300 299 293 308
20 300 315 341 286 196 278 317 340 321 319 308 312 2 44 18 23 120 114 108 119 135 120 83 66 28 357 353 358 359 343 342 326 328 346 320 291 272 269 270 285 286 297 294
344 302 308 308 12 348 316 316 4 310 279 320 306 25 49 20 23 79 95 94 96 76 52 28 14 4 346 333 341 346 342 332 354 348 340 303 312 302 312 318 311 319 313 299
53 305 296 309 37 292 289 302 354 323 316 321 289 323 53 30 44 65 81 87 79 45 18 5 346 317 327 3 345 326 6 350 326 308 281 280 335 337 321 322 325 324 316 315
13 321 312 310 162 358 301 330 318 327 311 281 295 80 15 84 59 57 92 73 44 359 351 345 302 8 348 345 356 353 329 325 324 310 299 2 329 322 325 326 333 335 320 328
331 293 289 295 317 320 305 307 309 326 288 292 314 3 9 33 51 65 64 31 358 329 302 8 354 343 345 12 344 333 342 331 326 323 337 352 299 308 325 350 320 338 340 345
273 299 306 297 306 298 285 289 315 316 305 310 350 30 20 24 69 34 357 353 12 18 20 2 346 2 357 344 351 309 329 351 336 341 334 319 310 308 347 327 331 349 349 354
316 288 292 293 279 271 294 312 315 295 340 343 6 59 323 46 36 359 350 336 32 17 346 358 360 0 332 323 352 357 358 344 328 330 330 333 301 325 341 327 341 355 355 359
295 292 294 287 297 299 299 1 313 36 29 24 12 335 30 27 345 344 15 12 23 342 6 12 344 302 359 359 339 350 331 336 338 353 339 336 341 355 7 356 355 357 351 347
296 291 287 290 296 286 86 41 17 10 32 41 259 351 21 360 351 54 37 3 7 17 6 321 355 6 348 340 338 338 351 340 328 337 348 350 355 15 22 359 357 353 359 13
284 293 307 288 311 79 82 53 30 19 93 250 8 353 6 1 302 84 24 30 26 354 1 7 8 318 332 340 341 5 342 344 353 347 347 7 9 10 0 357 2 12 2 17
244 231 277 307 285 340 60 95 322 304 96 347 360 7 3 333 334 41 23 41 1 9 19 342 324 331 354 343 344 346 358 344 3 359 12 18 12 13 0 1 17 8 356 354
355 306 295 290 272 83 40 13 309 351 37 27 8 18 9 5 20 17 20 23 26 28 332 346 327 21 22 6 345 359 6 1 359 359 25 21 15 4 29 10 21 3 12 5
330 315 322 342 320 355 342 339 4 57 84 14 30 18 14 29 40 41 39 33 17 11 6 336 11 11 7 21 3 359 2 357 7 11 10 22 36 16 7 19 15 12 14 22
333 21 331 18 22 71 47 69 69 42 46 40 28 27 33 55 71 45 43 32 22 10 2 19 17 28 11 2 12 9 15 2 4 19 41 33 24 21 27 19 14 19 15 19
65 39 283 260 102 109 98 86 76 67 66 47 52 50 59 81 70 50 34 39 7 27 30 26 11 25 21 19 27 29 9 19 28 31 28 27 33 15 16 29 39 44 26 12
100 231 311 73 54 113 126 95 98 89 74 71 54 60 90 74 68 38 50 14 38 56 43 47 38 23 17 13 12 17 7 11 13 24 33 33 32 30 44 46 29 42 44 27
25 26 29 19 23 18 125 113 123 88 63 59 96 103 84 73 53 43 46 39 21 65 46 47 40 26 10 7 7 4 357 357 20 35 34 24 35 37 35 74 68 37 28 42